Weather in Podkamennaya

Russia / Irkutsk Oblast     51°58′03″N   103°54′36″E
В апреле 2022 года жителям России запретили посещать сайт meteo.paraplan.net по решению Генеральной прокуратуры. Аудитория сайта уменьшилась в 10 раз. Владельцы сайта не видят смысла в поддержке погодного сервера в таких условиях. Сайт будет закрыт в октябре.
temp.,
°C
wind,
m/s
gust,
m/s
humid.,
%
clouds,
%
prec.,
mm/h
press.,
hPa
HPBL,
m
30 september, fri
fri3023:00+3ssw2297100 0.0 100828
02:00+4sse229792 0.0 100743
05:00+3sse2397100 0.0 100664
08:00+4sse2494100 0.0 1005126
11:00+4nw71384100 0.0 1009788
14:00+3nnw51070100 0.0 1012920
17:00+3nw4883100 0.3 1015868
20:000nw31198100 2.3 1017737
1 october, sat
sat123:00−1nw41097100 3.9 1020990
02:00−3wnw41196100 5.3 1022962
05:00−3wnw4129390 0.3 1024950
08:00−4nw4128761 0.3 1026880
11:000nw5976100 0.1 10271364
14:00+1nnw5867100 0.3 10261654
17:00+1nnw377021 0.1 10271462
20:00−6wsw21935 0.1 103214
2 october, sun
sun223:00−7wsw22935 0.0 103425
02:00−5w3108760 0.0 1034281
05:00−5wsw2587100 0.0 1035129
08:00−4w388199 0.0 1036655
11:000nw486897 0.0 10361280
14:00+2nw485698 0.2 10351867
17:00+1nw4867100 0.3 10351247
20:00−4wsw218984 0.3 103923
3 october, mon
mon323:00−5wsw229096 0.0 104136
02:00−4wsw129196 0.0 104137
05:00−5wsw129368 0.0 104147
08:00−4wsw238647 0.0 104279
11:00+1nw236153 0.0 10401036
14:00+4n125199 0.0 10381496
17:00+3ene115562 0.0 1036772
20:00−4s21945 0.0 103913
4 october, tue
tue423:00−5ssw21935 0.0 103818
02:00−5ssw219512 0.0 103717
05:00−5ssw1196100 0.0 103618
08:00−3nw1287100 0.0 103572
11:00+1nnw3469100 0.0 1035710
14:00+2nnw346498 0.0 10341160
17:00+1n357384 0.0 1034679
20:00−4nw119479 0.0 103611